Weather History for Baker, MT

Change the Weather History Date:

Thursday, December 6, 2012

  Actual Average Record
Temperature  
Mean Temperature 31 °F -  
Max Temperature 39 °F 40 °F 48 °F (1999)
Min Temperature 23 °F 14 °F -25 °F (2013)
Degree Days  
Heating Degree Days 34    
Moisture  
Dew Point 14 °F    
Average Humidity 50    
Maximum Humidity 69    
Minimum Humidity 27    
Precipitation  
Precipitation 0.00 in - - ()
Sea Level Pressure  
Sea Level Pressure 30.01 in    
Wind  
Wind Speed 11 mph (West)    
Max Wind Speed 17 mph    
Max Gust Speed 25 mph    
Visibility 10 miles    
Events      
Averages and records for this station are not official NWS values.
T = Trace of Precipitation, MM = Missing Value Source: NWS Daily Summary

Daily Weather History Graph

Daily Weather History Graph

Search for Another Location

Airport:

Trip Planner

Search our weather history database for the weather conditions in past years. The results will help you decide how hot, cold, wet, or windy it might be!

Date:

Astronomy

Dec. 06, 2012 Rise Set
Actual Time 7:25 AM MST 4:10 PM MST
Civil Twilight 6:51 AM MST 4:45 PM MST
Nautical Twilight 6:13 AM MST 5:23 PM MST
Astronomical Twilight 5:37 AM MST 5:59 PM MST
Moon No Moon Rise 11:59 AM MST (12/6)
Length of Visible Light 9h 53m
Length of Day
8h 44m
Waning Gibbous, 48% of the Moon is Illuminated
Dec 6
Waning Gibbous
Dec 13
New
Dec 19
First Quarter
Dec 28
Full
Jan 4
Last Quarter

Hourly Weather History & Observations

Time (MST) Temp. Windchill Dew Point Humidity Pressure Visibility Wind Dir Wind Speed Gust Speed Precip Events Conditions
12:51 AM 32.0 °F 20.8 °F 14.0 °F 48% 29.96 in 10.0 mi West 17.3 mph - N/A   Partly Cloudy
1:51 AM 32.0 °F 20.8 °F 12.0 °F 44% 29.97 in 10.0 mi West 17.3 mph 25.3 mph N/A   Clear
2:51 AM 30.9 °F 20.7 °F 12.9 °F 47% 30.01 in 10.0 mi West 13.8 mph - N/A   Clear
3:51 AM 27.0 °F 17.3 °F 14.0 °F 58% 30.02 in 10.0 mi WNW 10.4 mph - N/A   Partly Cloudy
4:51 AM 26.1 °F 16.2 °F 14.0 °F 60% 30.03 in 10.0 mi West 10.4 mph - N/A   Clear
5:51 AM 25.0 °F 15.5 °F 12.9 °F 60% 30.04 in 10.0 mi WNW 9.2 mph - N/A   Clear
6:51 AM 25.0 °F - 12.9 °F 60% 30.06 in 10.0 mi Calm Calm - N/A   Clear
7:51 AM 23.0 °F 18.4 °F 12.9 °F 65% 30.06 in 10.0 mi SSW 3.5 mph - N/A   Clear
8:51 AM 27.0 °F 23.0 °F 15.1 °F 61% 30.08 in 10.0 mi West 3.5 mph - N/A   Clear
9:51 AM 32.0 °F 25.6 °F 15.1 °F 50% 30.09 in 10.0 mi WSW 6.9 mph - N/A   Partly Cloudy
10:51 AM 34.0 °F 26.6 °F 12.9 °F 42% 30.08 in 10.0 mi West 9.2 mph - N/A   Mostly Cloudy
11:51 AM 37.0 °F 29.3 °F 12.0 °F 36% 30.05 in 10.0 mi West 11.5 mph - N/A   Overcast
12:51 PM 39.0 °F 31.0 °F 10.9 °F 32% 30.02 in 10.0 mi West 13.8 mph - N/A   Mostly Cloudy
1:51 PM 39.9 °F 32.1 °F 8.1 °F 27% 29.99 in 10.0 mi WNW 13.8 mph - N/A   Clear
2:51 PM 37.0 °F 30.4 °F 9.0 °F 31% 30.00 in 10.0 mi West 9.2 mph - N/A   Clear
3:51 PM 30.9 °F 25.2 °F 10.0 °F 42% 30.01 in 10.0 mi WSW 5.8 mph - N/A   Scattered Clouds
4:51 PM 28.9 °F 25.2 °F 12.0 °F 49% 30.00 in 10.0 mi SSW 3.5 mph - N/A   Mostly Cloudy
5:51 PM 33.1 °F 30.0 °F 12.0 °F 42% 30.00 in 10.0 mi Variable 3.5 mph - N/A   Overcast
6:51 PM 32.0 °F 24.8 °F 15.1 °F 50% 30.00 in 10.0 mi WSW 8.1 mph - N/A   Overcast
7:51 PM 32.0 °F 26.4 °F 15.1 °F 50% 30.00 in 10.0 mi West 5.8 mph - N/A   Overcast
8:51 PM 30.0 °F 25.2 °F 17.1 °F 59% 29.99 in 10.0 mi WSW 4.6 mph - N/A   Overcast
9:51 PM 30.0 °F 22.4 °F 18.0 °F 61% 29.98 in 10.0 mi WSW 8.1 mph - N/A   Clear
10:51 PM 30.0 °F 23.2 °F 19.0 °F 64% 29.97 in 10.0 mi West 6.9 mph - N/A   Scattered Clouds
11:51 PM 28.0 °F 21.7 °F 19.0 °F 69% 29.95 in 10.0 mi West 5.8 mph - N/A   Clear